User: anonymous   Login
Location: Unspecified
(0.0000°N, 0.0000°E)
Time: 08:51:49
(UTC+00:00)
Language:

STARLINK-35838 - Orbit

View from above orbital plane
View from above orbital plane
View from above satellite
View from above satellite

Ground track
Ground track

The orbit is defined by the following mean orbital elements,

1 66836U          26145.43413720 +.00000000 +00000-0 +35703-3 0 00005
2 66836  70.0005 140.8700 0004189 263.7294  96.3388 14.98334851    01
Epoch (UTC): 25 May 2026 10:25:09
Eccentricity: 0.0004189
inclination: 70.0005°
perigee height: 569 km
apogee height: 575 km
right ascension of ascending node: 140.8700°
argument of perigee: 263.7294°
revolutions per day: 14.98334851
mean anomaly at epoch: 96.3388°

The dashed part of the orbit path shows where the satellite is in the earth's shadow,  

DLR